FW2111 Weather Reports


time (UTC)temp
C
wind
direction
speed
KPH
gust
KPH
rain 1hr
cm
rain 24hr
cm
rain mn
cm
humidity
%
barometer
mb
20260503005442 11 138 1.6 4.8 0.00 0.00 0.00 38 1009.0
20260503004918 11 138 1.6 6.4 0.00 0.00 0.00 38 1009.0
20260503004914 11 137 1.6 6.4 0.00 0.00 0.00 39 1009.0
20260503003857 11 125 1.6 4.8 0.00 0.00 0.00 37 1009.0
20260503003359 11 125 1.6 6.4 0.00 0.00 0.00 36 1009.1
20260503002831 12 124 3.2 6.4 0.00 0.00 0.00 34 1009.2
20260503002332 12 92 3.2 6.4 0.00 0.00 0.00 32 1009.2
20260503002309 12 86 3.2 8.0 0.00 0.00 0.00 32 1009.1
20260503001245 12 74 3.2 8.0 0.00 0.00 0.00 33 1009.2
20260503001017 12 95 1.6 4.8 0.00 0.00 0.00 32 1009.3
20260503000222 13 95 1.6 4.8 0.00 0.00 0.00 32 1009.3
20260502235726 13 95 3.2 11.3 0.00 0.00 0.00 31 1009.4
20260502235159 14 96 4.8 11.3 0.00 0.00 0.00 28 1009.4
20260502234656 15 103 6.4 14.5 0.00 0.00 0.00 27 1009.3
20260502234132 16 165 6.4 16.1 0.00 0.00 0.00 25 1009.4
20260502233622 16 181 8.0 16.1 0.00 0.00 0.00 25 1009.4
20260502233126 16 200 8.0 12.9 0.00 0.00 0.00 25 1009.5
20260502232600 16 198 8.0 17.7 0.00 0.00 0.00 25 1009.5
20260502232100 16 200 9.7 19.3 0.00 0.00 0.00 25 1009.6
20260502231559 16 230 9.7 19.3 0.00 0.00 0.00 24 1009.7
20260502231101 17 216 11.3 20.9 0.00 0.00 0.00 23 1009.7
20260502230829 17 200 11.3 20.9 0.00 0.00 0.00 23 1009.6
20260502230313 17 205 12.9 24.1 0.00 0.00 0.00 23 1009.8
20260502225521 17 195 11.3 27.4 0.00 0.00 0.00 23 1009.6
20260502225252 17 227 9.7 27.4 0.00 0.00 0.00 22 1009.8
20260502224522 17 0 9.7 22.5 0.00 0.00 0.00 22 1009.8
20260502224003 17 252 9.7 27.4 0.00 0.00 0.00 21 1010.0
20260502223503 17 220 12.9 27.4 0.00 0.00 0.00 22 1009.9
20260502223001 17 230 16.1 29.0 0.00 0.00 0.00 21 1010.1
20260502222452 17 246 14.5 29.0 0.00 0.00 0.00 22 1010.1
20260502222224 17 227 11.3 29.0 0.00 0.00 0.00 21 1010.3
20260502221450 16 199 9.7 29.0 0.00 0.00 0.00 24 1010.2
20260502220947 15 194 8.0 19.3 0.00 0.00 0.00 24 1010.2
20260502220447 15 165 4.8 19.3 0.00 0.00 0.00 25 1010.3
20260502215922 15 174 3.2 6.4 0.00 0.00 0.00 26 1010.4
20260502215358 14 78 3.2 4.8 0.00 0.00 0.00 26 1010.4
20260502214859 14 71 4.8 11.3 0.00 0.00 0.00 25 1010.5
20260502214335 14 125 4.8 11.3 0.00 0.00 0.00 25 1010.6
20260502213835 14 128 4.8 11.3 0.00 0.00 0.00 24 1010.7
20260502213308 15 175 4.8 11.3 0.00 0.00 0.00 24 1010.8
20260502213040 15 109 3.2 9.7 0.00 0.00 0.00 24 1010.9
20260502212240 15 149 3.2 9.7 0.00 0.00 0.00 23 1011.0
20260502211711 15 72 4.8 12.9 0.00 0.00 0.00 23 1011.0
20260502211148 15 111 6.4 12.9 0.00 0.00 0.00 23 1011.1
20260502210622 14 117 6.4 14.5 0.00 0.00 0.00 23 1011.1
20260502210054 14 79 6.4 14.5 0.00 0.00 0.00 22 1011.2
20260502205821 14 107 6.4 14.5 0.00 0.00 0.00 22 1011.4
20260502205049 14 136 6.4 12.9 0.00 0.00 0.00 22 1011.5
20260502204545 14 121 4.8 12.9 0.00 0.00 0.00 21 1011.7
20260502204042 14 111 4.8 12.9 0.00 0.00 0.00 22 1011.5
20260502203537 13 113 8.0 12.9 0.00 0.00 0.00 22 1011.9
20260502203032 13 119 9.7 14.5 0.00 0.00 0.00 23 1011.8
20260502202800 13 106 11.3 16.1 0.00 0.00 0.00 23 1011.9
20260502202026 13 116 9.7 16.1 0.00 0.00 0.00 20 1012.1
20260502201753 14 130 8.0 14.5 0.00 0.00 0.00 21 1012.1
20260502201019 13 144 8.0 12.9 0.00 0.00 0.00 21 1012.1
20260502200517 13 117 8.0 12.9 0.00 0.00 0.00 24 1012.4
20260502195951 13 74 8.0 14.5 0.00 0.00 0.00 23 1012.5
20260502195423 12 132 8.0 14.5 0.00 0.00 0.00 23 1012.7
20260502194921 13 92 9.7 17.7 0.00 0.00 0.00 23 1012.8
20260502194355 13 126 9.7 17.7 0.00 0.00 0.00 23 1012.9
20260502193830 14 161 6.4 16.1 0.00 0.00 0.00 21 1013.0
20260502193331 13 155 6.4 12.9 0.00 0.00 0.00 23 1013.2
20260502193102 13 102 4.8 11.3 0.00 0.00 0.00 24 1013.1
20260502192807 13 107 4.8 9.7 0.00 0.00 0.00 23 1013.3
20260502191752 12 111 6.4 12.9 0.00 0.00 0.00 28 1013.4
20260502191526 12 172 8.0 12.9 0.00 0.00 0.00 24 1013.5
20260502190729 12 105 8.0 14.5 0.00 0.00 0.00 25 1013.5
20260502190226 13 123 6.4 14.5 0.00 0.00 0.00 23 1013.7
20260502185723 13 186 4.8 14.5 0.00 0.00 0.00 25 1013.8
20260502185156 12 150 6.4 14.5 0.00 0.00 0.00 26 1013.9
20260502184653 12 138 8.0 16.1 0.00 0.00 0.00 24 1014.0
20260502184127 12 152 6.4 16.1 0.00 0.00 0.00 25 1014.2
20260502183559 12 191 3.2 11.3 0.00 0.00 0.00 27 1014.2
20260502183329 12 192 4.8 11.3 0.00 0.00 0.00 26 1014.3
20260502182545 11 164 6.4 12.9 0.00 0.00 0.00 27 1014.5
20260502182042 11 86 6.4 12.9 0.00 0.00 0.00 26 1014.6
20260502181516 11 173 6.4 12.9 0.00 0.00 0.00 26 1014.7
20260502181013 12 117 4.8 9.7 0.00 0.00 0.00 26 1014.9
20260502180447 12 122 6.4 14.5 0.00 0.00 0.00 27 1014.8
20260502180151 12 138 8.0 14.5 0.00 0.00 0.00 27 1014.8
20260502170129 11 160 6.4 14.5 0.00 0.00 0.00 29 1015.9
20260502164030 10 128 4.8 11.3 0.00 0.00 0.00 34 1016.2
20260502163505 10 140 4.8 11.3 0.00 0.00 0.00 33 1016.3
20260502162938 10 95 4.8 11.3 0.00 0.00 0.00 33 1016.4
20260502162435 10 92 4.8 12.9 0.00 0.00 0.00 35 1016.5
20260502161907 10 148 6.4 12.9 0.00 0.00 0.00 36 1016.5
20260502161639 10 122 6.4 12.9 0.00 0.00 0.00 36 1016.5
20260502161108 10 190 4.8 12.9 0.00 0.00 0.00 35 1016.7
20260502160335 10 144 6.4 14.5 0.00 0.00 0.00 37 1016.7
20260502152202 8 181 4.8 9.7 0.00 0.00 0.00 39 1017.3
20260502151645 7 153 4.8 9.7 0.00 0.00 0.00 37 1017.5
20260502151147 7 165 4.8 12.9 0.00 0.00 0.00 36 1017.5
20260502150901 7 149 4.8 12.9 0.00 0.00 0.00 39 1017.5
20260502150104 7 130 4.8 8.0 0.00 0.00 0.00 40 1017.5
20260502130132 4 181 3.2 4.8 0.00 0.00 0.00 48 1018.3
20260502123422 4 219 1.6 3.2 0.00 0.00 0.00 46 1018.3
20260502122856 4 235 0.0 3.2 0.00 0.00 0.00 45 1018.2
20260502122330 4 260 0.0 3.2 0.00 0.00 0.00 46 1018.3
20260502121804 3 264 0.0 0.0 0.00 0.00 0.00 45 1018.3
20260502121242 3 265 0.0 0.0 0.00 0.00 0.00 47 1018.3
20260502121238 3 264 0.0 0.0 0.00 0.00 0.00 47 1018.3
20260502120223 3 266 0.0 0.0 0.00 0.00 0.00 45 1018.4
20260502115723 3 266 0.0 3.2 0.00 0.00 0.00 45 1018.4
20260502115657 3 266 0.0 3.2 0.00 0.00 0.00 46 1018.4
20260502114656 2 267 1.6 6.4 0.00 0.00 0.00 48 1018.4
20260502114129 2 267 3.2 9.7 0.00 0.00 0.00 48 1018.4
20260502113625 2 271 4.8 9.7 0.00 0.00 0.00 47 1018.4
20260502113101 1 268 3.2 9.7 0.00 0.00 0.00 48 1018.3
20260502112532 0 283 3.2 6.4 0.00 0.00 0.00 52 1018.4
20260502112030 0 283 3.2 6.4 0.00 0.00 0.00 52 1018.3
20260502111504 0 283 3.2 6.4 0.00 0.00 0.00 53 1018.4
20260502110938 0 282 3.2 6.4 0.00 0.00 0.00 52 1018.4
20260502110435 1 282 4.8 6.4 0.00 0.00 0.00 50 1018.4
20260502110204 1 282 4.8 6.4 0.00 0.00 0.00 49 1018.4
20260502105403 1 279 4.8 6.4 0.00 0.00 0.00 49 1018.3
20260502104838 1 278 6.4 6.4 0.00 0.00 0.00 48 1018.3
20260502104310 1 277 6.4 9.7 0.00 0.00 0.00 49 1018.3
20260502103807 1 279 6.4 9.7 0.00 0.00 0.00 50 1018.3
20260502103242 0 286 4.8 8.0 0.00 0.00 0.00 53 1018.3
20260502102947 0 284 3.2 8.0 0.00 0.00 0.00 56 1018.3
20260502102212 0 287 3.2 4.8 0.00 0.00 0.00 57 1018.5
20260502101645 -1 282 4.8 6.4 0.00 0.00 0.00 57 1018.5
20260502101142 0 284 4.8 6.4 0.00 0.00 0.00 57 1018.4
20260502100638 0 293 3.2 6.4 0.00 0.00 0.00 56 1018.5
20260502100135 0 300 3.2 4.8 0.00 0.00 0.00 56 1018.5
20260502091447 0 292 3.2 4.8 0.00 0.00 0.00 56 1018.5
20260502090921 0 292 3.2 6.4 0.00 0.00 0.00 55 1018.4
20260502090418 0 291 4.8 8.0 0.00 0.00 0.00 55 1018.4
20260502071325 0 306 3.2 4.8 0.00 0.00 0.00 54 1019.0
20260502070800 0 306 4.8 6.4 0.00 0.00 0.00 54 1019.1
20260502070233 0 307 4.8 6.4 0.00 0.00 0.00 53 1019.0
20260502065708 0 304 4.8 6.4 0.00 0.00 0.00 52 1019.1
20260502065141 0 301 4.8 6.4 0.00 0.00 0.00 53 1019.1
20260502064638 0 296 4.8 6.4 0.00 0.00 0.00 52 1019.2
20260502064112 0 288 6.4 6.4 0.00 0.00 0.00 52 1019.2
20260502063842 0 286 4.8 8.0 0.00 0.00 0.00 52 1019.1
20260502063341 0 298 6.4 8.0 0.00 0.00 0.00 52 1019.2
20260502062610 0 296 6.4 8.0 0.00 0.00 0.00 51 1019.1
20260502062315 0 296 6.4 8.0 0.00 0.00 0.00 51 1019.2
20260502061540 0 294 6.4 8.0 0.00 0.00 0.00 50 1019.2
20260502061037 0 290 6.4 8.0 0.00 0.00 0.00 49 1019.2
20260502060502 1 290 6.4 8.0 0.00 0.00 0.00 48 1019.2
20260502055942 1 290 6.4 8.0 0.00 0.00 0.00 49 1019.2
20260502055419 0 296 6.4 8.0 0.00 0.00 0.00 50 1019.3
20260502054919 0 298 4.8 6.4 0.00 0.00 0.00 52 1019.2
20260502054356 0 296 4.8 6.4 0.00 0.00 0.00 52 1019.2
20260502053830 0 294 4.8 6.4 0.00 0.00 0.00 53 1019.3
20260502053332 0 302 4.8 6.4 0.00 0.00 0.00 53 1019.3
20260502052805 0 303 4.8 6.4 0.00 0.00 0.00 53 1019.3
20260502052247 0 304 4.8 6.4 0.00 0.00 0.00 53 1019.3
20260502051748 0 304 4.8 6.4 0.00 0.00 0.00 54 1019.4
20260502051232 0 303 4.8 6.4 0.00 0.00 0.00 54 1019.3
20260502050733 0 300 4.8 6.4 0.00 0.00 0.00 54 1019.3
20260502050208 0 301 4.8 6.4 0.00 0.00 0.00 54 1019.4
20260502045710 0 304 3.2 4.8 0.00 0.00 0.00 52 1019.4
20260502045415 0 304 3.2 4.8 0.00 0.00 0.00 53 1019.4
20260502044617 0 304 3.2 4.8 0.00 0.00 0.00 53 1019.4
20260502044104 0 304 1.6 3.2 0.00 0.00 0.00 52 1019.5
20260502043607 0 305 1.6 4.8 0.00 0.00 0.00 52 1019.4
20260502043050 0 304 3.2 4.8 0.00 0.00 0.00 53 1019.3
20260502042549 0 305 4.8 6.4 0.00 0.00 0.00 53 1019.4
20260502042024 0 305 4.8 6.4 0.00 0.00 0.00 53 1019.4
20260502041524 0 305 3.2 4.8 0.00 0.00 0.00 52 1019.4
20260502040958 0 303 3.2 4.8 0.00 0.00 0.00 51 1019.4
20260502040433 1 303 3.2 4.8 0.00 0.00 0.00 51 1019.4
20260502035934 1 300 3.2 4.8 0.00 0.00 0.00 51 1019.4
20260502035417 1 300 3.2 4.8 0.00 0.00 0.00 51 1019.5
20260502035147 1 302 3.2 4.8 0.00 0.00 0.00 50 1019.4
20260502034647 1 302 3.2 4.8 0.00 0.00 0.00 49 1019.4
20260502033915 1 303 3.2 4.8 0.00 0.00 0.00 48 1019.4
20260502033353 1 302 4.8 6.4 0.00 0.00 0.00 49 1019.4
20260502032844 1 302 4.8 6.4 0.00 0.00 0.00 49 1019.4
20260502032343 1 303 4.8 4.8 0.00 0.00 0.00 50 1019.5
20260502031845 1 304 4.8 4.8 0.00 0.00 0.00 48 1019.5
20260502031324 1 304 3.2 4.8 0.00 0.00 0.00 48 1019.4
20260502030824 2 304 4.8 6.4 0.00 0.00 0.00 48 1019.5
20260502030326 2 303 4.8 6.4 0.00 0.00 0.00 48 1019.4
20260502025810 2 301 4.8 4.8 0.00 0.00 0.00 48 1019.4
20260502025249 2 300 4.8 6.4 0.00 0.00 0.00 47 1019.4
20260502024737 2 298 4.8 6.4 0.00 0.00 0.00 47 1019.4
20260502024238 2 297 4.8 6.4 0.00 0.00 0.00 47 1019.4
20260502023735 2 294 4.8 6.4 0.00 0.00 0.00 47 1019.5
20260502023208 2 300 4.8 4.8 0.00 0.00 0.00 46 1019.4
20260502022647 2 311 4.8 4.8 0.00 0.00 0.00 45 1019.4
20260502022123 3 314 3.2 4.8 0.00 0.00 0.00 46 1019.3
20260502021603 3 329 3.2 4.8 0.00 0.00 0.00 43 1019.3
20260502021309 3 30 3.2 4.8 0.00 0.00 0.00 43 1019.2
20260502020808 3 33 3.2 4.8 0.00 0.00 0.00 43 1019.2
20260502020039 3 33 3.2 4.8 0.00 0.00 0.00 42 1019.2
20260502015744 3 33 3.2 4.8 0.00 0.00 0.00 42 1019.2
20260502015009 4 43 3.2 4.8 0.00 0.00 0.00 42 1019.1
20260502014459 5 44 1.6 4.8 0.00 0.00 0.00 41 1019.1
20260502013936 5 44 0.0 3.2 0.00 0.00 0.00 39 1019.1
20260502013410 5 44 1.6 4.8 0.00 0.00 0.00 35 1019.1
20260502012905 5 44 1.6 4.8 0.00 0.00 0.00 34 1019.0
20260502012338 5 45 1.6 4.8 0.00 0.00 0.00 35 1019.0
20260502011814 5 45 1.6 4.8 0.00 0.00 0.00 34 1019.1
20260502011538 5 76 1.6 4.8 0.00 0.00 0.00 35 1019.1
20260502010806 5 76 0.0 3.2 0.00 0.00 0.00 35 1019.0
20260502010239 6 77 1.6 3.2 0.00 0.00 0.00 35 1019.0
20260502005943 6 77 0.0 3.2 0.00 0.00 0.00 35 1019.0